San Juan, PR (00901)

11:45 PM AST on August 18, 2017 (GMT -0400)
LORD Total Mangosta | | Change Station
Active Advisory: Coastal Hazard Statement Active Notice: Coastal Hazard Statement

Elev 15 ft 18.42 °N, 66.11 °W | Updated 1 minute ago

Mostly Cloudy
Mostly Cloudy
83.3 °F
Feels Like 90 °F
N
6.8
Wind Variable Wind from ESE

Today
High -- | Low -- °F
--% Chance of Precip.
Yesterday
High -- | Low -- °F
Precip. -- in
Pressure 29.95 in
Visibility 10.0 miles
Clouds Scattered Clouds 2500 ft
Scattered Clouds 3000 ft
Scattered Clouds 5000 ft
Heat Index 90 °F
Dew Point 74 °F
Humidity 74%
Rainfall 0.03 in
Snow Depth Not available.
6:07 AM 6:49 PM
Waning Crescent, 9% visible
METAR TJSJ 190256Z 07012KT 10SM SCT025 SCT030 SCT050 29/24 A2995 RMK AO2 SLP142 VCSH SE-SW NW T02890244 51006
Pressure 29.95 in
Visibility 10.0 miles
Clouds Scattered Clouds 2500 ft
Scattered Clouds 3000 ft
Scattered Clouds 5000 ft
Heat Index 90 °F
Dew Point 74 °F
Humidity 74%
Rainfall 0.03 in
Snow Depth Not available.
6:07 AM 6:49 PM
Waning Crescent, 9% visible
METAR TJSJ 190256Z 07012KT 10SM SCT025 SCT030 SCT050 29/24 A2995 RMK AO2 SLP142 VCSH SE-SW NW T02890244 51006

Get Your Daily Forecast Email!

Thanks for signing up!

Be on the lookout for a verification email in your inbox.

You'll start receiving severe weather alerts in your inbox..

×

10-Day Weather Forecast

Almanac

Astronomy

Aug. 18, 2017 Rise Set
Actual Time
Civil Twilight
Nautical Twilight
Astronomical Twilight
Moon
Length of Visible Light
Length of Day
Tomorrow will be .
, % of the Moon is Illuminated

Today's Extremes

State Highs State Lows

Community

WunderPhotos

Category 6

Welcome to Category 6. This is the collective home for Weather Underground's featured writeups by Dr. Jeff Masters (right), Bob Henson (left), Chris Burt, and other regular contributors.

Nearby

Air Quality

  Air Quality AQ Index Pollutant
Not available.

Snow Depth

Station Depth Elevation

Earthquake Activity

City Distance Mag. Time & Date
Minimum magnitude displayed is 2.5.

Coastal Water Temperatures

Place Temperature

Stations

Nearby Weather Stations

Station Location Temp. Windchill Dew Point Humidity Wind Precip. Elev Updated Type
                   

Watches & Warnings

Coastal Hazard Statement
Issued: 9:11 PM AST Aug. 18, 2017 – National Weather Service

... High rip current risk remains in effect until 6 am AST
Saturday...

* location... northwest to northeast facing beaches.

* Timing... through tonight.

* Impacts... strong currents that can carry away even the best
swimmers.

Precautionary/preparedness actions...

There is a high risk of rip currents.

Swim near a lifeguard. If caught in a rip current, relax and
float. Don't swim against the current. If able, swim in a
direction following the shoreline. If unable to escape, face the
shore and call or wave for help.